Location: Rowland
(34.5359°N, 79.2929°W)
Time: 18:21:48
(UTC+00:00)

Transit 2A - Pass Details

Date: 11 October 2022
Orbit: 598 x 959 km, 66.7° (Epoch: 02 December)

Event Time Altitude Azimuth Distance (km) Brightness Sun altitude
Rises 09:47:05 0° 356° (N) 3,005 9.1 -19.8°
Reaches altitude 10° 09:51:00 10° 29° (NNE) 2,170 8.8 -19.0°
Maximum altitude 09:52:45 12° 50° (NE) 2,093 9.0 -18.7°
Drops below altitude 10° 09:54:32 10° 71° (ENE) 2,248 9.6 -18.3°
Sets 09:58:47 0° 103° (ESE) 3,273 10.7 -17.4°
